This is the latest recevied weather packets stored in our database for station/object OH2NJR. If no packets are shown the sender has not sent any weather packets the latest 10 day(s).
| Time | Temp. | Humidity | Pressure | Rain* | Wind** | Luminosity | Snow |
|---|---|---|---|---|---|---|---|
| 1777533965 | 6.67° C | 70% | 1021.7 hPa | 0 mm | - | - | - |
| 1777533963 | 6.67° C | 70% | 1021.7 hPa | 0 mm | - | - | - |
| 1777533960 | 6.67° C | 70% | 1021.7 hPa | 0 mm | - | - | - |
| 1777532880 | 6.11° C | 72% | 1021.8 hPa | 0 mm | - | - | - |
| 1777531873 | 5.56° C | 71% | 1021.7 hPa | 0 mm | - | - | - |
| 1777530793 | 5° C | 74% | 1021.6 hPa | 0 mm | - | - | - |
| 1777529708 | 5° C | 74% | 1022 hPa | 0 mm | - | - | - |
| 1777528697 | 5° C | 72% | 1022.1 hPa | 0 mm | - | - | - |
| 1777527568 | 4.44° C | 73% | 1022.3 hPa | 0 mm | - | - | - |
| 1777526454 | 4.44° C | 72% | 1022.2 hPa | 0 mm | - | - | - |
| 1777525369 | 4.44° C | 73% | 1022.3 hPa | 0 mm | - | - | - |
| 1777524354 | 3.89° C | 71% | 1022.3 hPa | 0 mm | - | - | - |
| 1777523219 | 3.89° C | 68% | 1022.4 hPa | 0 mm | - | - | - |
| 1777522112 | 3.89° C | 65% | 1022.5 hPa | 0 mm | - | - | - |
| 1777520928 | 3.89° C | 66% | 1022.4 hPa | 0 mm | - | - | - |
| 1777519798 | 3.89° C | 66% | 1022.5 hPa | 0 mm | - | - | - |
| 1777518640 | 3.89° C | 64% | 1022.6 hPa | 0 mm | - | - | - |
| 1777517480 | 3.89° C | 64% | 1022.6 hPa | 0 mm | - | - | - |
| 1777516353 | 3.89° C | 60% | 1022.8 hPa | 0 mm | - | - | - |
| 1777515224 | 3.89° C | 60% | 1022.7 hPa | 0 mm | - | - | - |
| 1777514138 | 3.89° C | 61% | 1022.6 hPa | 0 mm | - | - | - |
| 1777513014 | 3.89° C | 59% | 1022.7 hPa | 0 mm | - | - | - |
| 1777512048 | 3.89° C | 61% | 1022.8 hPa | 0 mm | - | - | - |
| 1777510889 | 3.89° C | 60% | 1022.9 hPa | 0 mm | - | - | - |
| 1777509845 | 3.89° C | 58% | 1023.5 hPa | 0 mm | - | - | - |
* Rain latest hour (hover to see other rain measurements)
** Current wind speed in m/s (hover to see current wind gust speed)